Location: Newark
(47.3150°N, 5.1150°E)
Time: 07:45:44
(UTC+00:00)

Envisat - Pass Details

Date: 24 October 2019
Orbit: 764 x 766 km, 98.1° (Epoch: 17 November)

Event Time Altitude Azimuth Distance (km) Brightness Sun altitude
Rises 05:24:16 0° 27° (NNE) 3,243 6.5 -8.5°
Reaches altitude 10° 05:27:18 10° 46° (NE) 2,310 6.1 -8.0°
Maximum altitude 05:30:46 18° 90° (E) 1,797 6.3 -7.4°
Drops below altitude 10° 05:34:14 10° 133° (SE) 2,298 6.5 -6.8°
Sets 05:37:14 0° 152° (SSE) 3,218 6.8 -6.3°
